Location: Newark
(34.1333°N, 7.9667°W)
Time: 00:21:59
(UTC+00:00)

ITAMSAT 1 - Pass Details

Date: 21 April 2024
Orbit: 781 x 796 km, 98.8° (Epoch: 28 May)

Event Time Altitude Azimuth Distance (km) Brightness Sun altitude
Exits shadow 21:08:11 45° 174° (S) 1,073 8.0 -23.2°
Maximum altitude 21:09:51 83° 257° (WSW) 806 7.6 -23.5°
Drops below altitude 10° 21:15:06 10° 345° (NNW) 2,371 10.8 -24.4°
Sets 21:17:26 0° 346° (NNW) 3,304 11.6 -24.8°
